Starlink 4536

operational
NORAD ID: 53783 Int'l Des: 2022-111 Owner: SPXS Country: US Constellation: starlink
LEOCIRCULAR

About Starlink 4536

Description loading...

Live Position

Loading 3D Globe...

Upcoming Passes

Altitude History

Altitude vs Time

uPlot chart will show altitude changes over time

Two-Line Element Set

1 53783U 22111L 25296.94595403 .00000294 00000-0 36567-4 0 9992
2 53783 53.2158 167.9063 0001295 85.0270 275.0870 15.08836894173050
Epoch: Oct 23, 2025 • Age: 16 hours

Current Status

Altitude 544.3 km
Velocity 7.59 km/s
Sub-Earth Point -15.85°S, 98.18°W
Launch Date Sep 11, 2022
Age 3.1 years
Type internet

Technical Details

Classification Payload
Mass 305.00 kg
Dry Mass 290.00 kg
Total Mass 305.00 kg
Length 0.20 m
Diameter 2.80 m
Span 9.00 m
Shape Box + pan
Manufacturer SPXS
Bus Type Starlink
Phase Status In Orbit
Owner/State SPXS/US

Large Constellations

Loading constellations...